ROMMA est une association bénévole à but non lucratif. Votre soutien est indispensable : ADHERER à ROMMA ou FAIRE un DON

Engins - (38, Isère)

Vercors (906 m)   Longitude: 05° 37' E   Latitude: 45° 11' N Station partenaire n°139
 

Détail journalier du     <<     >>

Température Precipitation Humidité Vent Dir Rafale Dir. rafale Ensol.
Heure (°C) (mm) (%) (km/h) (km/h) (min)
01:00 4.90955O10O0
02:00 4.70.2955SSO11SSO0
03:00 4.50948SSO18SSO0
04:00 4.109410SSO27SO0
05:00 3.909514SSO29S0
06:00 3.70959SSO24SSE0
07:00 3.80959SSO16OSO0
08:00 3.80947SSO16S0
09:00 4.50919SSO23SSO0
10:00 6.008813S27SSE60
11:00 7.708617S27S60
12:00 11.108111SSE26S60
13:00 12.30762ENE6ENE60
14:00 12.70693ENE8ENE60
15:00 13.90482ENE6ENE60
16:00 15.20592ENE6SSE60
17:00 11.10742NO5NNE45
18:00 10.20773NO6NO0
19:00 9.80794OSO6NO0
20:00 9.00833O8N0
21:00 8.70823O8SSO0
22:00 8.70833OSO10OSO0
23:00 8.80844O15SO0
minuit 8.80844S10S0

Graphique du 16-10-2019

 

Serveur OMMA